Time,TemperatureF,DewpointF,PressureIn,WindDirection,WindDirectionDegrees,WindSpeedMPH,WindSpeedGustMPH,Humidity,HourlyPrecipIn,Conditions,Clouds,dailyrainin,SoftwareType,DateUTC
2013-03-25 00:00:00,55.8,32.0,30.69,ENE,58,0.0,0.0,12,0.00,PR,BKN,0.00,Misterhouse,2013-03-25 07:00:00,
2013-03-25 00:10:00,56.3,32.0,30.69,ENE,58,0.0,0.0,12,0.00,PR,BKN,0.00,Misterhouse,2013-03-25 07:10:00,
2013-03-25 00:15:00,56.3,32.0,30.69,ENE,58,0.0,0.0,12,0.00,PR,BKN,0.00,Misterhouse,2013-03-25 07:15:00,
2013-03-25 00:20:00,56.5,32.0,30.69,ENE,58,0.0,0.0,12,0.00,PR,BKN,0.00,Misterhouse,2013-03-25 07:20:00,
2013-03-25 00:25:00,56.7,32.0,30.69,ENE,58,0.0,0.0,12,0.00,PR,BKN,0.00,Misterhouse,2013-03-25 07:25:00,
2013-03-25 00:30:00,56.7,32.0,30.69,ENE,58,0.0,0.0,12,0.00,PR,BKN,0.00,Misterhouse,2013-03-25 07:30:00,
2013-03-25 00:35:00,56.5,32.0,30.69,ENE,58,0.0,0.0,12,0.00,PR,BKN,0.00,Misterhouse,2013-03-25 07:35:00,
2013-03-25 00:40:00,56.7,32.0,30.69,ENE,58,0.0,0.0,12,0.00,PR,BKN,0.00,Misterhouse,2013-03-25 07:40:00,
2013-03-25 00:45:00,56.7,32.0,30.69,ENE,58,0.0,0.0,12,0.00,PR,BKN,0.00,Misterhouse,2013-03-25 07:45:00,
2013-03-25 00:50:00,56.8,32.0,30.69,ENE,58,0.0,0.0,12,0.00,PR,BKN,0.00,Misterhouse,2013-03-25 07:50:00,
2013-03-25 00:55:00,56.5,32.0,30.69,ENE,59,0.0,0.0,12,0.00,PR,BKN,0.00,Misterhouse,2013-03-25 07:55:00,
2013-03-25 01:00:00,56.3,32.0,30.69,ENE,59,0.0,0.0,12,0.00,PR,BKN,0.00,Misterhouse,2013-03-25 08:00:00,
2013-03-25 01:10:00,57.0,32.0,30.69,ENE,59,0.0,0.0,12,0.00,PR,BKN,0.00,Misterhouse,2013-03-25 08:10:00,
2013-03-25 01:15:00,57.4,32.0,30.69,ENE,59,0.0,0.0,12,0.00,PR,BKN,0.00,Misterhouse,2013-03-25 08:15:00,
2013-03-25 01:20:00,57.7,32.0,30.69,ENE,59,0.0,0.0,12,0.00,PR,BKN,0.00,Misterhouse,2013-03-25 08:20:00,
2013-03-25 01:25:00,57.2,32.0,30.69,ENE,59,0.0,0.0,12,0.00,PR,BKN,0.00,Misterhouse,2013-03-25 08:25:00,
2013-03-25 01:30:00,56.7,32.0,30.69,ENE,59,0.0,0.0,12,0.00,PR,BKN,0.00,Misterhouse,2013-03-25 08:30:00,
2013-03-25 01:35:00,56.7,32.0,30.69,ENE,59,0.0,0.0,12,0.00,PR,BKN,0.00,Misterhouse,2013-03-25 08:35:00,
2013-03-25 01:40:00,56.8,32.0,30.69,ENE,59,0.0,0.0,12,0.00,PR,BKN,0.00,Misterhouse,2013-03-25 08:40:00,
2013-03-25 01:45:00,57.7,32.0,30.69,ENE,59,0.0,0.0,12,0.00,PR,BKN,0.00,Misterhouse,2013-03-25 08:45:00,
2013-03-25 01:50:00,57.0,32.0,30.69,ENE,59,0.0,0.0,12,0.00,PR,BKN,0.00,Misterhouse,2013-03-25 08:50:00,
2013-03-25 01:55:00,56.3,32.0,30.69,ENE,59,0.0,0.0,12,0.00,PR,BKN,0.00,Misterhouse,2013-03-25 08:55:00,
2013-03-25 02:00:00,56.7,32.0,30.69,ENE,59,0.0,0.0,12,0.00,PR,BKN,0.00,Misterhouse,2013-03-25 09:00:00,
2013-03-25 02:10:00,58.1,32.0,30.69,South,179,5.0,6.0,12,0.00,PR,BKN,0.00,Misterhouse,2013-03-25 09:10:00,
2013-03-25 02:15:00,59.5,32.0,30.69,SSE,153,3.0,0.0,12,0.00,PR,BKN,0.00,Misterhouse,2013-03-25 09:15:00,
2013-03-25 02:20:00,59.4,32.0,30.69,South,189,3.0,4.0,12,0.00,PR,BKN,0.00,Misterhouse,2013-03-25 09:20:00,
2013-03-25 02:25:00,59.5,32.0,30.69,SSW,202,4.0,5.0,12,0.00,PR,BKN,0.00,Misterhouse,2013-03-25 09:25:00,
2013-03-25 02:30:00,60.3,32.0,30.69,SSW,206,5.0,6.0,12,0.00,PR,BKN,0.00,Misterhouse,2013-03-25 09:30:00,
2013-03-25 02:35:00,60.6,32.0,30.69,West,260,0.0,4.0,12,0.00,PR,BKN,0.00,Misterhouse,2013-03-25 09:35:00,
2013-03-25 02:40:00,57.7,32.0,30.69,WSW,251,4.0,4.0,12,0.00,PR,BKN,0.00,Misterhouse,2013-03-25 09:40:00,
2013-03-25 02:45:00,56.5,32.0,30.69,WSW,257,0.0,0.0,12,0.00,PR,BKN,0.00,Misterhouse,2013-03-25 09:45:00,
2013-03-25 02:50:00,56.1,32.0,30.69,SSW,208,4.0,6.0,12,0.00,PR,BKN,0.00,Misterhouse,2013-03-25 09:50:00,
2013-03-25 02:55:00,57.7,32.0,30.66,SSW,205,4.0,4.0,12,0.00,PR,BKN,0.00,Misterhouse,2013-03-25 09:55:00,
2013-03-25 03:00:00,58.5,32.0,30.66,SSW,206,4.0,4.0,12,0.00,PR,BKN,0.00,Misterhouse,2013-03-25 10:00:00,
2013-03-25 03:05:00,58.8,32.0,30.66,SSW,200,0.0,0.0,12,0.00,PR,BKN,0.00,Misterhouse,2013-03-25 10:05:00,
2013-03-25 03:10:00,57.7,32.0,30.69,SSW,206,0.0,0.0,12,0.00,PR,BKN,0.00,Misterhouse,2013-03-25 10:10:00,
2013-03-25 03:15:00,56.7,32.0,30.69,SSW,206,0.0,0.0,12,0.00,PR,BKN,0.00,Misterhouse,2013-03-25 10:15:00,
2013-03-25 03:20:00,55.8,32.0,30.69,SSW,206,0.0,0.0,12,0.00,PR,BKN,0.00,Misterhouse,2013-03-25 10:20:00,
2013-03-25 03:25:00,55.4,32.0,30.69,SSW,206,0.0,0.0,12,0.00,PR,BKN,0.00,Misterhouse,2013-03-25 10:25:00,
2013-03-25 03:30:00,55.2,32.0,30.69,SSW,206,0.0,0.0,13,0.00,PR,BKN,0.00,Misterhouse,2013-03-25 10:30:00,
2013-03-25 03:35:00,55.4,32.0,30.69,SSW,206,0.0,0.0,12,0.00,PR,BKN,0.00,Misterhouse,2013-03-25 10:35:00,
2013-03-25 03:40:00,55.2,32.0,30.66,SSW,206,0.0,0.0,13,0.00,PR,BKN,0.00,Misterhouse,2013-03-25 10:40:00,
2013-03-25 03:45:00,55.2,32.0,30.66,SSW,206,0.0,0.0,13,0.00,PR,BKN,0.00,Misterhouse,2013-03-25 10:45:00,
2013-03-25 03:50:00,55.6,32.0,30.66,SSW,206,0.0,0.0,12,0.00,PR,BKN,0.00,Misterhouse,2013-03-25 10:50:00,
2013-03-25 03:55:00,55.6,32.0,30.66,SSW,206,0.0,0.0,12,0.00,PR,BKN,0.00,Misterhouse,2013-03-25 10:55:00,
2013-03-25 04:00:00,55.4,32.0,30.66,SSW,206,0.0,0.0,12,0.00,PR,BKN,0.00,Misterhouse,2013-03-25 11:00:00,
2013-03-25 04:10:00,54.5,32.0,30.66,SSW,206,0.0,0.0,13,0.00,PR,BKN,0.00,Misterhouse,2013-03-25 11:10:00,
2013-03-25 04:15:00,54.5,32.0,30.66,SSW,206,0.0,0.0,13,0.00,PR,BKN,0.00,Misterhouse,2013-03-25 11:15:00,
2013-03-25 04:20:00,55.0,32.0,30.66,WSW,242,0.0,2.0,13,0.00,PR,BKN,0.00,Misterhouse,2013-03-25 11:20:00,
2013-03-25 04:25:00,55.4,32.0,30.66,WSW,246,0.0,0.0,12,0.00,PR,BKN,0.00,Misterhouse,2013-03-25 11:25:00,
2013-03-25 04:30:00,55.9,32.0,30.66,WSW,245,0.0,0.0,12,0.00,PR,BKN,0.00,Misterhouse,2013-03-25 11:30:00,
2013-03-25 04:40:00,56.1,32.0,30.66,WSW,245,0.0,0.0,12,0.00,PR,BKN,0.00,Misterhouse,2013-03-25 11:40:00,
2013-03-25 04:45:00,56.3,32.0,30.66,WSW,245,0.0,0.0,12,0.00,PR,BKN,0.00,Misterhouse,2013-03-25 11:45:00,
2013-03-25 04:55:00,55.8,32.0,30.69,WSW,245,0.0,0.0,12,0.00,PR,BKN,0.00,Misterhouse,2013-03-25 11:55:00,
2013-03-25 05:00:00,55.2,32.0,30.69,South,182,4.0,4.0,13,0.00,PR,BKN,0.00,Misterhouse,2013-03-25 12:00:00,
2013-03-25 05:10:00,55.8,32.0,30.69,South,175,4.0,4.0,12,0.00,PR,BKN,0.00,Misterhouse,2013-03-25 12:10:00,
2013-03-25 05:15:00,55.8,32.0,30.69,South,175,0.0,0.0,12,0.00,PR,BKN,0.00,Misterhouse,2013-03-25 12:15:00,
2013-03-25 05:20:00,55.2,32.0,30.69,SSE,161,0.0,0.0,13,0.00,PR,BKN,0.00,Misterhouse,2013-03-25 12:20:00,
2013-03-25 05:25:00,54.9,32.0,30.69,SSE,161,0.0,0.0,13,0.00,PR,BKN,0.00,Misterhouse,2013-03-25 12:25:00,
2013-03-25 05:30:00,54.3,32.0,30.69,SSE,161,0.0,0.0,13,0.00,PR,BKN,0.00,Misterhouse,2013-03-25 12:30:00,
2013-03-25 05:40:00,54.1,32.0,30.69,South,170,2.0,0.0,13,0.00,PR,BKN,0.00,Misterhouse,2013-03-25 12:40:00,
2013-03-25 05:45:00,54.1,32.0,30.69,South,185,4.0,4.0,13,0.00,PR,BKN,0.00,Misterhouse,2013-03-25 12:45:00,
2013-03-25 05:55:00,54.0,32.0,30.69,South,187,0.0,0.0,13,0.00,PR,BKN,0.00,Misterhouse,2013-03-25 12:55:00,
2013-03-25 06:00:00,53.1,32.0,30.69,South,187,0.0,0.0,13,0.00,PR,BKN,0.00,Misterhouse,2013-03-25 13:00:00,
2013-03-25 06:10:00,52.5,32.0,30.69,South,187,0.0,0.0,13,0.00,PR,BKN,0.00,Misterhouse,2013-03-25 13:10:00,
2013-03-25 06:15:00,52.7,32.0,30.69,South,187,0.0,0.0,13,0.00,PR,BKN,0.00,Misterhouse,2013-03-25 13:15:00,
2013-03-25 06:25:00,52.7,32.0,30.69,South,187,0.0,0.0,13,0.00,PR,BKN,0.00,Misterhouse,2013-03-25 13:25:00,
2013-03-25 06:30:00,52.5,32.0,30.69,South,187,0.0,0.0,13,0.00,PR,BKN,0.00,Misterhouse,2013-03-25 13:30:00,
2013-03-25 06:40:00,52.2,32.0,30.69,South,187,0.0,0.0,13,0.00,PR,BKN,0.00,Misterhouse,2013-03-25 13:40:00,
2013-03-25 06:45:00,52.9,32.0,30.69,South,187,0.0,0.0,13,0.00,PR,BKN,0.00,Misterhouse,2013-03-25 13:45:00,
2013-03-25 06:55:00,53.2,32.0,30.69,South,189,3.0,4.0,13,0.00,PR,BKN,0.00,Misterhouse,2013-03-25 13:55:00,
2013-03-25 07:00:00,53.2,32.0,30.69,South,185,4.0,4.0,13,0.00,PR,BKN,0.00,Misterhouse,2013-03-25 14:00:00,
2013-03-25 07:05:00,53.1,32.0,30.69,South,185,0.0,0.0,13,0.00,PR,BKN,0.00,Misterhouse,2013-03-25 14:05:00,
2013-03-25 07:10:00,52.3,32.0,30.69,South,185,0.0,0.0,13,0.00,PR,BKN,0.00,Misterhouse,2013-03-25 14:10:00,
2013-03-25 07:20:00,53.8,32.0,30.69,South,187,0.0,0.0,13,0.00,PR,BKN,0.00,Misterhouse,2013-03-25 14:20:00,
2013-03-25 07:30:00,54.0,32.0,30.69,SSW,207,0.0,0.0,13,0.00,PR,BKN,0.00,Misterhouse,2013-03-25 14:30:00,
2013-03-25 07:35:00,54.7,32.0,30.69,WSW,245,0.0,0.0,13,0.00,PR,BKN,0.00,Misterhouse,2013-03-25 14:35:00,
2013-03-25 07:40:00,55.4,32.0,30.69,WSW,245,0.0,0.0,12,0.00,PR,BKN,0.00,Misterhouse,2013-03-25 14:40:00,
2013-03-25 07:45:00,55.6,32.0,30.69,West,279,0.0,4.0,12,0.00,PR,BKN,0.00,Misterhouse,2013-03-25 14:45:00,
2013-03-25 07:50:00,55.2,32.0,30.69,West,280,0.0,0.0,13,0.00,PR,BKN,0.00,Misterhouse,2013-03-25 14:50:00,
2013-03-25 07:55:00,54.9,32.0,30.69,West,276,0.0,0.0,13,0.00,PR,BKN,0.00,Misterhouse,2013-03-25 14:55:00,
2013-03-25 08:00:00,55.4,32.0,30.69,WNW,301,4.0,4.0,12,0.00,PR,BKN,0.00,Misterhouse,2013-03-25 15:00:00,
2013-03-25 08:10:00,55.9,32.0,30.69,WNW,288,0.0,0.0,12,0.00,PR,BKN,0.00,Misterhouse,2013-03-25 15:10:00,
2013-03-25 08:15:00,56.5,32.0,30.69,West,281,2.0,3.0,12,0.00,PR,BKN,0.00,Misterhouse,2013-03-25 15:15:00,
2013-03-25 08:20:00,56.5,32.0,30.69,West,281,0.0,0.0,12,0.00,PR,BKN,0.00,Misterhouse,2013-03-25 15:20:00,
2013-03-25 08:25:00,56.7,32.0,30.69,West,269,0.0,0.0,12,0.00,PR,BKN,0.00,Misterhouse,2013-03-25 15:25:00,
2013-03-25 08:30:00,57.0,32.0,30.69,West,269,0.0,0.0,12,0.00,PR,BKN,0.00,Misterhouse,2013-03-25 15:30:00,
2013-03-25 08:35:00,57.9,32.0,30.69,West,269,0.0,0.0,12,0.00,PR,BKN,0.00,Misterhouse,2013-03-25 15:35:00,
2013-03-25 08:40:00,59.0,32.0,30.69,NNW,337,0.0,5.0,12,0.00,PR,BKN,0.00,Misterhouse,2013-03-25 15:40:00,
2013-03-25 08:45:00,59.5,32.0,30.69,WNW,299,5.0,5.0,12,0.00,PR,BKN,0.00,Misterhouse,2013-03-25 15:45:00,
2013-03-25 08:50:00,60.4,32.0,30.69,NW,310,7.0,7.0,12,0.00,PR,BKN,0.00,Misterhouse,2013-03-25 15:50:00,
2013-03-25 08:55:00,60.8,32.0,30.69,NW,308,6.0,6.0,11,0.00,PR,BKN,0.00,Misterhouse,2013-03-25 15:55:00,
2013-03-25 09:00:00,61.3,32.0,30.69,West,281,8.0,8.0,11,0.00,PR,BKN,0.00,Misterhouse,2013-03-25 16:00:00,
2013-03-25 09:10:00,61.7,32.0,30.72,WNW,291,8.0,10.0,11,0.00,PR,BKN,0.00,Misterhouse,2013-03-25 16:10:00,
2013-03-25 09:15:00,61.7,32.0,30.72,West,259,10.0,11.0,11,0.00,PR,BKN,0.00,Misterhouse,2013-03-25 16:15:00,
2013-03-25 09:20:00,62.1,32.0,30.72,WNW,282,9.0,9.0,11,0.00,PR,BKN,0.00,Misterhouse,2013-03-25 16:20:00,
2013-03-25 09:25:00,62.2,32.0,30.72,WNW,284,9.0,9.0,11,0.00,PR,BKN,0.00,Misterhouse,2013-03-25 16:25:00,
2013-03-25 09:30:00,62.8,32.0,30.72,WNW,294,5.0,6.0,11,0.00,PR,BKN,0.00,Misterhouse,2013-03-25 16:30:00,
2013-03-25 09:35:00,63.0,32.0,30.72,WNW,282,5.0,5.0,11,0.00,PR,BKN,0.00,Misterhouse,2013-03-25 16:35:00,
2013-03-25 09:40:00,63.3,32.0,30.72,WNW,286,7.0,7.0,11,0.00,PR,BKN,0.00,Misterhouse,2013-03-25 16:40:00,
2013-03-25 09:45:00,63.7,32.0,30.72,WNW,292,4.0,6.0,11,0.00,PR,BKN,0.00,Misterhouse,2013-03-25 16:45:00,
2013-03-25 09:50:00,64.2,32.0,30.72,WNW,284,8.0,11.0,11,0.00,PR,BKN,0.00,Misterhouse,2013-03-25 16:50:00,
2013-03-25 10:00:00,64.2,32.0,30.72,ENE,57,2.0,4.0,11,0.00,PR,BKN,0.00,Misterhouse,2013-03-25 17:00:00,
2013-03-25 10:10:00,65.8,32.0,30.72,ENE,57,2.0,4.0,10,0.00,PR,BKN,0.00,Misterhouse,2013-03-25 17:10:00,
2013-03-25 10:15:00,66.7,32.0,30.72,North,4,6.0,8.0,10,0.00,PR,BKN,0.00,Misterhouse,2013-03-25 17:15:00,
2013-03-25 10:20:00,66.9,32.0,30.72,NW,324,3.0,0.0,10,0.00,PR,BKN,0.00,Misterhouse,2013-03-25 17:20:00,
2013-03-25 10:25:00,67.3,32.0,30.72,NNW,332,8.0,8.0,10,0.00,PR,BKN,0.00,Misterhouse,2013-03-25 17:25:00,
2013-03-25 10:30:00,67.3,32.0,30.72,East,98,2.0,4.0,10,0.00,PR,BKN,0.00,Misterhouse,2013-03-25 17:30:00,
2013-03-25 10:40:00,68.5,32.0,30.72,NNW,341,4.0,4.0,10,0.00,PR,BKN,0.00,Misterhouse,2013-03-25 17:40:00,
2013-03-25 10:45:00,68.9,32.0,30.72,NNW,341,3.0,0.0,10,0.00,PR,BKN,0.00,Misterhouse,2013-03-25 17:45:00,
2013-03-25 10:50:00,67.3,32.0,30.72,WSW,248,8.0,8.0,10,0.00,PR,BKN,0.00,Misterhouse,2013-03-25 17:50:00,
2013-03-25 10:55:00,68.4,32.0,30.72,South,169,5.0,5.0,10,0.00,PR,BKN,0.00,Misterhouse,2013-03-25 17:55:00,
2013-03-25 11:00:00,67.8,32.0,30.72,West,276,8.0,8.0,10,0.00,PR,BKN,0.00,Misterhouse,2013-03-25 18:00:00,
2013-03-25 11:10:00,68.2,32.0,30.72,West,270,10.0,11.0,10,0.00,PR,BKN,0.00,Misterhouse,2013-03-25 18:10:00,
2013-03-25 11:15:00,67.8,32.0,30.72,SSW,200,5.0,11.0,10,0.00,PR,BKN,0.00,Misterhouse,2013-03-25 18:15:00,
2013-03-25 11:20:00,68.2,32.0,30.72,NNW,346,6.0,6.0,10,0.00,PR,BKN,0.00,Misterhouse,2013-03-25 18:20:00,
2013-03-25 11:25:00,68.0,32.0,30.72,West,262,3.0,6.0,10,0.00,PR,BKN,0.00,Misterhouse,2013-03-25 18:25:00,
2013-03-25 11:30:00,66.7,32.0,30.72,West,262,5.0,10.0,10,0.00,PR,BKN,0.00,Misterhouse,2013-03-25 18:30:00,
2013-03-25 11:35:00,67.3,32.0,30.72,WNW,303,6.0,6.0,10,0.00,PR,BKN,0.00,Misterhouse,2013-03-25 18:35:00,
2013-03-25 11:40:00,68.2,32.0,30.72,West,275,8.0,8.0,10,0.00,PR,BKN,0.00,Misterhouse,2013-03-25 18:40:00,
2013-03-25 11:45:00,67.8,32.0,30.72,SSW,210,6.0,6.0,10,0.00,PR,BKN,0.00,Misterhouse,2013-03-25 18:45:00,
2013-03-25 11:50:00,67.8,32.0,30.72,WSW,253,5.0,9.0,10,0.00,PR,BKN,0.00,Misterhouse,2013-03-25 18:50:00,
2013-03-25 11:55:00,68.7,32.0,30.72,SSW,198,3.0,6.0,10,0.00,PR,BKN,0.00,Misterhouse,2013-03-25 18:55:00,
2013-03-25 12:00:00,68.4,32.0,30.72,SE,139,5.0,5.0,10,0.00,PR,BKN,0.00,Misterhouse,2013-03-25 19:00:00,
2013-03-25 12:05:00,67.8,32.0,30.72,West,261,9.0,9.0,10,0.00,PR,BKN,0.00,Misterhouse,2013-03-25 19:05:00,
2013-03-25 12:10:00,67.8,32.0,30.72,SW,232,9.0,9.0,10,0.00,PR,BKN,0.00,Misterhouse,2013-03-25 19:10:00,
2013-03-25 12:15:00,68.2,32.0,30.72,WSW,253,8.0,8.0,10,0.00,PR,BKN,0.00,Misterhouse,2013-03-25 19:15:00,
2013-03-25 12:20:00,68.4,32.0,30.72,South,182,8.0,9.0,10,0.00,PR,BKN,0.00,Misterhouse,2013-03-25 19:20:00,
2013-03-25 12:25:00,68.5,32.0,30.69,SSW,205,9.0,11.0,10,0.00,PR,BKN,0.00,Misterhouse,2013-03-25 19:25:00,
2013-03-25 12:30:00,68.7,32.0,30.69,SW,214,8.0,8.0,10,0.00,PR,BKN,0.00,Misterhouse,2013-03-25 19:30:00,
2013-03-25 12:35:00,68.9,32.0,30.69,South,181,10.0,16.0,10,0.00,PR,BKN,0.00,Misterhouse,2013-03-25 19:35:00,
2013-03-25 12:40:00,68.7,32.0,30.69,West,260,5.0,11.0,10,0.00,PR,BKN,0.00,Misterhouse,2013-03-25 19:40:00,
2013-03-25 12:50:00,69.3,32.0,30.69,WSW,241,4.0,6.0,10,0.00,PR,BKN,0.00,Misterhouse,2013-03-25 19:50:00,
2013-03-25 12:55:00,69.3,32.0,30.69,West,262,10.0,12.0,10,0.00,PR,BKN,0.00,Misterhouse,2013-03-25 19:55:00,
2013-03-25 13:00:00,69.3,32.0,30.69,WNW,294,10.0,10.0,10,0.00,PR,BKN,0.00,Misterhouse,2013-03-25 20:00:00,
2013-03-25 13:10:00,68.5,32.0,30.69,WSW,258,8.0,8.0,10,0.00,PR,BKN,0.00,Misterhouse,2013-03-25 20:10:00,
2013-03-25 13:15:00,69.3,32.0,30.69,WSW,248,9.0,15.0,10,0.00,PR,BKN,0.00,Misterhouse,2013-03-25 20:15:00,
2013-03-25 13:25:00,69.6,32.0,30.69,SSE,167,7.0,8.0,10,0.00,PR,BKN,0.00,Misterhouse,2013-03-25 20:25:00,
2013-03-25 13:30:00,69.1,32.0,30.69,South,172,10.0,10.0,10,0.00,PR,BKN,0.00,Misterhouse,2013-03-25 20:30:00,
2013-03-25 13:35:00,69.4,32.0,30.69,SSE,151,11.0,11.0,10,0.00,PR,BKN,0.00,Misterhouse,2013-03-25 20:35:00,
2013-03-25 13:40:00,69.8,32.0,30.69,SSW,195,10.0,10.0,9,0.00,PR,BKN,0.00,Misterhouse,2013-03-25 20:40:00,
2013-03-25 13:45:00,69.4,32.0,30.69,West,265,7.0,8.0,10,0.00,PR,BKN,0.00,Misterhouse,2013-03-25 20:45:00,
2013-03-25 13:50:00,69.3,32.0,30.69,West,263,9.0,9.0,10,0.00,PR,BKN,0.00,Misterhouse,2013-03-25 20:50:00,
2013-03-25 14:00:00,68.9,32.0,30.69,West,275,9.0,16.0,10,0.00,PR,BKN,0.00,Misterhouse,2013-03-25 21:00:00,
2013-03-25 14:10:00,68.9,32.0,30.69,WNW,288,10.0,13.0,10,0.00,PR,BKN,0.00,Misterhouse,2013-03-25 21:10:00,
2013-03-25 14:15:00,68.5,32.0,30.69,WNW,287,11.0,11.0,10,0.00,PR,BKN,0.00,Misterhouse,2013-03-25 21:15:00,
2013-03-25 14:20:00,69.6,32.0,30.69,SSW,206,7.0,12.0,10,0.00,PR,BKN,0.00,Misterhouse,2013-03-25 21:20:00,
2013-03-25 14:25:00,69.4,32.0,30.69,SSW,193,12.0,12.0,10,0.00,PR,BKN,0.00,Misterhouse,2013-03-25 21:25:00,
2013-03-25 14:35:00,69.6,32.0,30.69,South,189,11.0,11.0,10,0.00,PR,BKN,0.00,Misterhouse,2013-03-25 21:35:00,
2013-03-25 14:40:00,69.4,32.0,30.69,SSW,202,8.0,8.0,10,0.00,PR,BKN,0.00,Misterhouse,2013-03-25 21:40:00,
2013-03-25 14:45:00,69.3,32.0,30.69,SSW,202,9.0,13.0,10,0.00,PR,BKN,0.00,Misterhouse,2013-03-25 21:45:00,
2013-03-25 14:50:00,69.3,32.0,30.69,West,279,8.0,10.0,10,0.00,PR,BKN,0.00,Misterhouse,2013-03-25 21:50:00,
2013-03-25 15:00:00,69.3,32.0,30.66,SW,216,8.0,8.0,10,0.00,PR,BKN,0.00,Misterhouse,2013-03-25 22:00:00,
2013-03-25 15:05:00,69.1,32.0,30.66,SW,217,8.0,8.0,10,0.00,PR,BKN,0.00,Misterhouse,2013-03-25 22:05:00,
2013-03-25 15:10:00,69.3,32.0,30.66,SSW,195,6.0,6.0,10,0.00,PR,BKN,0.00,Misterhouse,2013-03-25 22:10:00,
2013-03-25 15:20:00,70.5,32.0,30.66,SW,216,8.0,8.0,9,0.00,PR,BKN,0.00,Misterhouse,2013-03-25 22:20:00,
2013-03-25 15:25:00,69.4,32.0,30.66,West,276,5.0,6.0,10,0.00,PR,BKN,0.00,Misterhouse,2013-03-25 22:25:00,
2013-03-25 15:30:00,70.0,32.0,30.66,SSE,153,7.0,8.0,9,0.00,PR,BKN,0.00,Misterhouse,2013-03-25 22:30:00,
2013-03-25 15:35:00,69.3,32.0,30.66,SW,232,6.0,6.0,10,0.00,PR,BKN,0.00,Misterhouse,2013-03-25 22:35:00,
2013-03-25 15:40:00,69.4,32.0,30.66,SSW,208,8.0,8.0,10,0.00,PR,BKN,0.00,Misterhouse,2013-03-25 22:40:00,
2013-03-25 15:45:00,69.3,32.0,30.66,SSW,202,6.0,13.0,10,0.00,PR,BKN,0.00,Misterhouse,2013-03-25 22:45:00,
2013-03-25 15:50:00,68.5,32.0,30.66,WSW,239,7.0,7.0,10,0.00,PR,BKN,0.00,Misterhouse,2013-03-25 22:50:00,
2013-03-25 15:55:00,68.7,32.0,30.66,SW,220,11.0,11.0,10,0.00,PR,BKN,0.00,Misterhouse,2013-03-25 22:55:00,
2013-03-25 16:00:00,68.7,32.0,30.66,SSW,211,10.0,10.0,10,0.00,PR,BKN,0.00,Misterhouse,2013-03-25 23:00:00,
2013-03-25 16:10:00,69.3,32.0,30.66,SSW,200,6.0,6.0,10,0.00,PR,BKN,0.00,Misterhouse,2013-03-25 23:10:00,
2013-03-25 16:15:00,69.3,32.0,30.66,SSE,153,8.0,8.0,10,0.00,PR,BKN,0.00,Misterhouse,2013-03-25 23:15:00,
2013-03-25 16:20:00,69.1,32.0,30.66,SSE,168,11.0,11.0,10,0.00,PR,BKN,0.00,Misterhouse,2013-03-25 23:20:00,
2013-03-25 16:30:00,70.2,32.0,30.66,SW,236,7.0,7.0,9,0.00,PR,BKN,0.00,Misterhouse,2013-03-25 23:30:00,
2013-03-25 16:35:00,69.4,32.0,30.66,WSW,241,8.0,11.0,10,0.00,PR,BKN,0.00,Misterhouse,2013-03-25 23:35:00,
2013-03-25 16:40:00,68.4,32.0,30.66,SSW,206,4.0,4.0,10,0.00,PR,BKN,0.00,Misterhouse,2013-03-25 23:40:00,
2013-03-25 16:45:00,68.0,32.0,30.66,SW,216,8.0,8.0,10,0.00,PR,BKN,0.00,Misterhouse,2013-03-25 23:45:00,
2013-03-25 16:50:00,67.6,32.0,30.66,WSW,251,5.0,6.0,10,0.00,PR,BKN,0.00,Misterhouse,2013-03-25 23:50:00,
2013-03-25 16:55:00,67.5,32.0,30.66,South,188,6.0,6.0,10,0.00,PR,BKN,0.00,Misterhouse,2013-03-25 23:55:00,
2013-03-25 17:00:00,67.1,32.0,30.66,SSE,160,8.0,8.0,10,0.00,PR,BKN,0.00,Misterhouse,2013-03-26 00:00:00,
2013-03-25 17:10:00,66.4,32.0,30.66,SW,216,7.0,10.0,10,0.00,PR,BKN,0.00,Misterhouse,2013-03-26 00:10:00,
2013-03-25 17:15:00,66.2,32.0,30.66,South,182,8.0,11.0,10,0.00,PR,BKN,0.00,Misterhouse,2013-03-26 00:15:00,
2013-03-25 17:20:00,66.0,32.0,30.66,West,271,8.0,8.0,10,0.00,PR,BKN,0.00,Misterhouse,2013-03-26 00:20:00,
2013-03-25 17:25:00,66.0,32.0,30.66,WSW,239,8.0,8.0,10,0.00,PR,BKN,0.00,Misterhouse,2013-03-26 00:25:00,
2013-03-25 17:30:00,65.8,32.0,30.66,South,183,8.0,8.0,10,0.00,PR,BKN,0.00,Misterhouse,2013-03-26 00:30:00,
2013-03-25 17:35:00,65.7,32.0,30.66,South,170,4.0,11.0,10,0.00,PR,BKN,0.00,Misterhouse,2013-03-26 00:35:00,
2013-03-25 17:40:00,65.7,32.0,30.66,SSW,198,8.0,10.0,10,0.00,PR,BKN,0.00,Misterhouse,2013-03-26 00:40:00,
2013-03-25 17:45:00,65.7,32.0,30.66,West,264,5.0,5.0,10,0.00,PR,BKN,0.00,Misterhouse,2013-03-26 00:45:00,
2013-03-25 17:55:00,65.5,32.0,30.66,SE,125,7.0,7.0,10,0.00,PR,BKN,0.00,Misterhouse,2013-03-26 00:55:00,
2013-03-25 18:00:00,65.3,32.0,30.66,SSW,198,10.0,10.0,10,0.00,PR,BKN,0.00,Misterhouse,2013-03-26 01:00:00,
2013-03-25 18:10:00,64.4,32.0,30.66,SSE,162,12.0,12.0,10,0.00,PR,BKN,0.00,Misterhouse,2013-03-26 01:10:00,
2013-03-25 18:15:00,64.0,32.0,30.66,SSW,201,10.0,12.0,11,0.00,PR,BKN,0.00,Misterhouse,2013-03-26 01:15:00,
2013-03-25 18:20:00,63.9,32.0,30.66,SSW,196,11.0,11.0,11,0.00,PR,BKN,0.00,Misterhouse,2013-03-26 01:20:00,
2013-03-25 18:25:00,63.5,32.0,30.66,South,187,12.0,12.0,11,0.00,PR,BKN,0.00,Misterhouse,2013-03-26 01:25:00,
2013-03-25 18:30:00,63.3,32.0,30.66,SSW,202,12.0,13.0,11,0.00,PR,BKN,0.00,Misterhouse,2013-03-26 01:30:00,
2013-03-25 18:35:00,63.1,32.0,30.66,SSW,200,12.0,17.0,11,0.00,PR,BKN,0.00,Misterhouse,2013-03-26 01:35:00,
2013-03-25 18:40:00,63.1,32.0,30.66,South,181,12.0,12.0,11,0.00,PR,BKN,0.00,Misterhouse,2013-03-26 01:40:00,
2013-03-25 18:45:00,63.0,32.0,30.66,SSW,213,15.0,15.0,11,0.00,PR,BKN,0.00,Misterhouse,2013-03-26 01:45:00,
2013-03-25 18:50:00,62.8,32.0,30.66,SSW,193,13.0,15.0,11,0.00,PR,BKN,0.00,Misterhouse,2013-03-26 01:50:00,
2013-03-25 18:55:00,62.4,32.0,30.63,SW,229,9.0,11.0,11,0.00,RA,OVC,0.00,Misterhouse,2013-03-26 01:55:00,
2013-03-25 19:00:00,62.2,32.0,30.63,South,179,12.0,15.0,11,0.00,RA,OVC,0.00,Misterhouse,2013-03-26 02:00:00,
2013-03-25 19:05:00,62.2,32.0,30.63,SSW,203,15.0,17.0,11,0.00,RA,OVC,0.00,Misterhouse,2013-03-26 02:05:00,
2013-03-25 19:10:00,61.9,32.0,30.66,South,185,15.0,16.0,11,0.00,RA,OVC,0.00,Misterhouse,2013-03-26 02:10:00,
2013-03-25 19:15:00,61.7,32.0,30.66,South,169,15.0,15.0,11,0.00,RA,OVC,0.00,Misterhouse,2013-03-26 02:15:00,
2013-03-25 19:20:00,61.5,32.0,30.66,SSW,203,14.0,17.0,11,0.00,RA,OVC,0.00,Misterhouse,2013-03-26 02:20:00,
2013-03-25 19:25:00,61.3,32.0,30.66,SSW,192,15.0,15.0,11,0.00,RA,OVC,0.00,Misterhouse,2013-03-26 02:25:00,
2013-03-25 19:30:00,61.0,32.0,30.66,SSW,194,12.0,17.0,11,0.00,RA,OVC,0.00,Misterhouse,2013-03-26 02:30:00,
2013-03-25 19:40:00,60.8,32.0,30.66,South,189,12.0,12.0,11,0.00,RA,OVC,0.00,Misterhouse,2013-03-26 02:40:00,
2013-03-25 19:45:00,60.6,32.0,30.66,South,171,14.0,14.0,12,0.00,RA,OVC,0.00,Misterhouse,2013-03-26 02:45:00,
2013-03-25 19:50:00,60.4,32.0,30.66,SSW,202,12.0,12.0,12,0.00,RA,OVC,0.00,Misterhouse,2013-03-26 02:50:00,
2013-03-25 19:55:00,60.1,32.0,30.66,SSW,203,14.0,18.0,12,0.00,RA,OVC,0.00,Misterhouse,2013-03-26 02:55:00,
2013-03-25 20:00:00,60.1,32.0,30.66,SSW,200,13.0,13.0,12,0.00,RA,OVC,0.00,Misterhouse,2013-03-26 03:00:00,
2013-03-25 20:10:00,60.3,32.0,30.66,SE,144,11.0,13.0,12,0.00,RA,OVC,0.00,Misterhouse,2013-03-26 03:10:00,
2013-03-25 20:15:00,60.4,32.0,30.66,SSW,196,13.0,13.0,12,0.00,RA,OVC,0.00,Misterhouse,2013-03-26 03:15:00,
2013-03-25 20:20:00,60.6,32.0,30.66,South,189,13.0,15.0,12,0.00,RA,OVC,0.00,Misterhouse,2013-03-26 03:20:00,
2013-03-25 20:25:00,60.4,32.0,30.66,SSW,198,12.0,14.0,12,0.00,RA,OVC,0.00,Misterhouse,2013-03-26 03:25:00,
2013-03-25 20:30:00,60.1,32.0,30.66,SSE,158,10.0,11.0,12,0.00,RA,OVC,0.00,Misterhouse,2013-03-26 03:30:00,
2013-03-25 20:35:00,59.9,32.0,30.66,SSE,163,9.0,12.0,12,0.00,RA,OVC,0.00,Misterhouse,2013-03-26 03:35:00,
2013-03-25 20:40:00,59.7,32.0,30.66,SSW,201,11.0,11.0,12,0.00,RA,OVC,0.00,Misterhouse,2013-03-26 03:40:00,
2013-03-25 20:50:00,60.1,32.0,30.66,SSW,209,12.0,13.0,12,0.00,RA,OVC,0.00,Misterhouse,2013-03-26 03:50:00,
2013-03-25 20:55:00,60.1,32.0,30.66,South,174,9.0,13.0,12,0.00,RA,OVC,0.00,Misterhouse,2013-03-26 03:55:00,
2013-03-25 21:00:00,59.9,32.0,30.66,SSW,199,13.0,23.0,12,0.00,RA,OVC,0.00,Misterhouse,2013-03-26 04:00:00,
2013-03-25 21:05:00,59.9,32.0,30.66,SE,144,11.0,11.0,12,0.00,RA,OVC,0.00,Misterhouse,2013-03-26 04:05:00,
2013-03-25 21:10:00,59.7,32.0,30.66,SSW,199,11.0,11.0,12,0.00,RA,OVC,0.00,Misterhouse,2013-03-26 04:10:00,
2013-03-25 21:15:00,59.5,32.0,30.66,SSE,157,14.0,16.0,12,0.00,RA,OVC,0.00,Misterhouse,2013-03-26 04:15:00,
2013-03-25 21:20:00,59.9,32.0,30.66,SSW,193,15.0,15.0,12,0.00,RA,OVC,0.00,Misterhouse,2013-03-26 04:20:00,
2013-03-25 21:25:00,59.9,32.0,30.66,SW,229,11.0,11.0,12,0.00,RA,OVC,0.00,Misterhouse,2013-03-26 04:25:00,
2013-03-25 21:30:00,59.5,32.0,30.66,SSW,196,10.0,11.0,12,0.00,RA,OVC,0.00,Misterhouse,2013-03-26 04:30:00,
2013-03-25 21:35:00,59.5,32.0,30.66,South,189,13.0,13.0,12,0.00,RA,OVC,0.00,Misterhouse,2013-03-26 04:35:00,
2013-03-25 21:40:00,59.2,32.0,30.66,SSE,158,12.0,12.0,12,0.00,RA,OVC,0.00,Misterhouse,2013-03-26 04:40:00,
2013-03-25 21:45:00,58.8,32.0,30.66,South,175,14.0,14.0,12,0.00,RA,OVC,0.00,Misterhouse,2013-03-26 04:45:00,
2013-03-25 21:50:00,58.8,32.0,30.66,SSW,197,15.0,15.0,12,0.00,RA,OVC,0.00,Misterhouse,2013-03-26 04:50:00,
2013-03-25 21:55:00,59.0,32.0,30.66,SW,217,14.0,15.0,12,0.00,RA,OVC,0.00,Misterhouse,2013-03-26 04:55:00,
2013-03-25 22:00:00,59.2,32.0,30.66,SSW,200,13.0,13.0,12,0.00,RA,OVC,0.00,Misterhouse,2013-03-26 05:00:00,
2013-03-25 22:05:00,59.0,32.0,30.66,SSW,204,14.0,14.0,12,0.00,RA,OVC,0.00,Misterhouse,2013-03-26 05:05:00,
2013-03-25 22:10:00,59.0,32.0,30.69,SSE,159,11.0,15.0,12,0.00,BC,SCT,0.00,Misterhouse,2013-03-26 05:10:00,
2013-03-25 22:15:00,59.0,32.0,30.69,SW,216,16.0,16.0,12,0.00,BC,SCT,0.00,Misterhouse,2013-03-26 05:15:00,
2013-03-25 22:25:00,59.0,32.0,30.69,South,184,15.0,17.0,12,0.00,BC,SCT,0.00,Misterhouse,2013-03-26 05:25:00,
2013-03-25 22:30:00,58.8,32.0,30.69,South,189,10.0,12.0,12,0.00,BC,SCT,0.00,Misterhouse,2013-03-26 05:30:00,
2013-03-25 22:35:00,58.6,32.0,30.69,SSW,198,12.0,12.0,12,0.00,BC,SCT,0.00,Misterhouse,2013-03-26 05:35:00,
2013-03-25 22:40:00,58.8,32.0,30.66,South,170,12.0,12.0,12,0.00,BC,SCT,0.00,Misterhouse,2013-03-26 05:40:00,
2013-03-25 22:50:00,59.2,32.0,30.66,SSE,166,15.0,15.0,12,0.00,BC,SCT,0.00,Misterhouse,2013-03-26 05:50:00,
2013-03-25 22:55:00,59.0,32.0,30.69,SSE,157,14.0,18.0,12,0.00,BC,SCT,0.00,Misterhouse,2013-03-26 05:55:00,
2013-03-25 23:00:00,59.0,32.0,30.69,SSW,200,14.0,16.0,12,0.00,BC,SCT,0.00,Misterhouse,2013-03-26 06:00:00,
2013-03-25 23:10:00,58.6,32.0,30.66,South,182,14.0,17.0,12,0.00,BC,SCT,0.00,Misterhouse,2013-03-26 06:10:00,
2013-03-25 23:15:00,58.8,32.0,30.66,South,179,13.0,17.0,12,0.00,BC,SCT,0.00,Misterhouse,2013-03-26 06:15:00,
2013-03-25 23:20:00,58.8,32.0,30.66,South,172,14.0,15.0,12,0.00,BC,SCT,0.00,Misterhouse,2013-03-26 06:20:00,
2013-03-25 23:25:00,58.8,32.0,30.66,South,176,12.0,12.0,12,0.00,BC,SCT,0.00,Misterhouse,2013-03-26 06:25:00,
2013-03-25 23:30:00,59.2,32.0,30.66,SSW,199,15.0,17.0,12,0.00,BC,SCT,0.00,Misterhouse,2013-03-26 06:30:00,
2013-03-25 23:35:00,59.4,32.0,30.66,South,171,14.0,17.0,12,0.00,BC,SCT,0.00,Misterhouse,2013-03-26 06:35:00,
2013-03-25 23:40:00,59.4,32.0,30.66,SSW,197,15.0,15.0,12,0.00,BC,SCT,0.00,Misterhouse,2013-03-26 06:40:00,
2013-03-25 23:45:00,59.2,32.0,30.66,SSE,157,12.0,12.0,12,0.00,BC,SCT,0.00,Misterhouse,2013-03-26 06:45:00,
2013-03-25 23:50:00,59.0,32.0,30.66,South,180,15.0,17.0,12,0.00,BC,SCT,0.00,Misterhouse,2013-03-26 06:50:00,
2013-03-25 23:55:00,59.0,32.0,30.66,South,175,15.0,16.0,12,0.00,BC,SCT,0.00,Misterhouse,2013-03-26 06:55:00,